TimeCST,TemperatureF,Dew PointF,Humidity,Sea Level PressureIn,VisibilityMPH,Wind Direction,Wind SpeedMPH,Gust SpeedMPH,PrecipitationIn,Events,Conditions,WindDirDegrees,DateUTC
12:02 AM,37.4,35.6,93,29.33,3.0,NNW,11.5,-,0.00,Rain,Light Rain,330,2013-11-17 06:02:00
12:49 AM,37.4,35.6,93,29.33,3.0,NNW,11.5,-,0.01,Rain,Light Rain,330,2013-11-17 06:49:00
12:53 AM,37.9,36.0,93,29.35,3.0,NNW,10.4,-,0.02,Rain,Light Rain,330,2013-11-17 06:53:00
1:00 AM,37.4,35.6,93,29.33,3.0,NNW,10.4,-,0.00,Rain,Light Rain,330,2013-11-17 07:00:00
1:53 AM,37.9,36.0,93,29.37,4.0,NW,12.7,-,0.00,,Overcast,320,2013-11-17 07:53:00
2:53 AM,37.0,35.1,93,29.37,4.0,NNW,11.5,-,N/A,,Overcast,330,2013-11-17 08:53:00
3:19 AM,37.4,35.6,93,29.36,4.0,NNW,11.5,-,N/A,,Overcast,330,2013-11-17 09:19:00
3:53 AM,37.9,35.1,89,29.40,4.0,NW,11.5,-,N/A,,Overcast,320,2013-11-17 09:53:00
4:05 AM,37.4,35.6,93,29.39,4.0,NW,10.4,-,N/A,,Overcast,320,2013-11-17 10:05:00
4:53 AM,37.0,35.1,93,29.42,4.0,NNW,11.5,-,0.00,Rain,Light Rain,330,2013-11-17 10:53:00
5:27 AM,37.4,35.6,93,29.40,5.0,NNW,11.5,-,0.00,,Overcast,330,2013-11-17 11:27:00
5:53 AM,37.0,35.1,93,29.43,7.0,NW,12.7,-,0.00,,Overcast,320,2013-11-17 11:53:00
6:53 AM,36.0,33.1,89,29.44,7.0,NNW,15.0,-,N/A,,Overcast,330,2013-11-17 12:53:00
7:53 AM,35.1,32.0,89,29.48,8.0,NNW,15.0,-,N/A,,Overcast,340,2013-11-17 13:53:00
8:53 AM,34.0,30.9,89,29.51,10.0,NNW,16.1,24.2,N/A,,Overcast,330,2013-11-17 14:53:00
9:53 AM,33.1,30.0,89,29.53,10.0,NW,18.4,23.0,N/A,,Overcast,320,2013-11-17 15:53:00
10:53 AM,33.1,28.9,85,29.58,10.0,NW,17.3,-,N/A,,Overcast,320,2013-11-17 16:53:00
11:53 AM,33.1,28.0,82,29.61,10.0,NW,19.6,-,N/A,,Overcast,320,2013-11-17 17:53:00
12:01 PM,33.8,28.4,81,29.58,10.0,NW,19.6,-,N/A,,Overcast,320,2013-11-17 18:01:00
12:53 PM,32.0,26.1,79,29.63,10.0,NW,23.0,28.8,N/A,,Overcast,310,2013-11-17 18:53:00
1:48 PM,32.0,24.8,75,29.63,10.0,NW,21.9,28.8,N/A,,Overcast,320,2013-11-17 19:48:00
1:53 PM,32.0,25.0,75,29.66,10.0,NW,21.9,-,N/A,,Overcast,320,2013-11-17 19:53:00
2:53 PM,30.9,24.1,76,29.70,10.0,NW,21.9,28.8,N/A,,Overcast,320,2013-11-17 20:53:00
3:53 PM,30.9,23.0,72,29.74,10.0,NNW,19.6,27.6,N/A,,Overcast,330,2013-11-17 21:53:00
4:53 PM,30.9,23.0,72,29.78,10.0,NW,17.3,-,N/A,,Overcast,320,2013-11-17 22:53:00
5:53 PM,30.0,21.9,72,29.83,10.0,NW,20.7,27.6,N/A,,Overcast,320,2013-11-17 23:53:00
6:53 PM,30.0,21.0,69,29.86,10.0,NW,20.7,28.8,N/A,,Overcast,320,2013-11-18 00:53:00
7:53 PM,28.9,21.0,72,29.88,10.0,NW,17.3,24.2,N/A,,Overcast,320,2013-11-18 01:53:00
8:53 PM,28.0,19.9,72,29.91,10.0,NNW,21.9,27.6,N/A,,Overcast,330,2013-11-18 02:53:00
9:53 PM,28.0,19.9,72,29.94,10.0,NW,17.3,27.6,N/A,,Overcast,320,2013-11-18 03:53:00
10:53 PM,27.0,19.9,75,29.96,10.0,NNW,17.3,24.2,N/A,,Overcast,330,2013-11-18 04:53:00
11:53 PM,27.0,19.0,72,29.98,10.0,NW,11.5,-,N/A,,Overcast,310,2013-11-18 05:53:00